Location: Delta State University
(33.7460°N, 90.7320°W)
Time: 03:26:32
(UTC-05:00)

Iridium 13 - Visible Passes

Search period start: 28 May 2017 00:00
Search period end: 07 June 2017 00:00
Orbit: 776 x 779 km, 86.4° (Epoch: 27 May)

Date Brightness Start Highest point End Pass type
(mag) Time Alt. Az. Time Alt. Az. Time Alt. Az.
28 May 7.2 20:53:15 10° NNW 20:57:57 35° W 21:02:38 10° SSW visible
30 May 8.5 21:29:11 10° WNW 21:31:07 12° W 21:33:04 10° W visible
31 May 8.0 20:53:49 10° NNW 20:57:54 24° W 21:02:00 10° SW visible
03 Jun 8.4 20:54:45 10° NW 20:57:50 16° W 21:00:55 10° WSW visible
06 Jun 9.0 20:57:05 10° WNW 20:57:43 10° WNW 20:58:21 10° W visible
